sat.trackr.live / text

‹ back to catalog

STARLINK-5506

NORAD 55651 · 2023-021Z

PAYLOAD ACTIVE UNKNOWN

§ Identity

Operator
Country
US
Launch date
2023-02-17
Launch site
AFWTR
Launch vehicle
Mass (kg)
RCS (m²)

Purposes: comms

External: N2YO · Heavens-Above · Gunter

§ Orbital elements

Epoch: 2026-09-20T14:11:28.374432Z

Period
96.11 min
Inclination
70.0000°
Eccentricity
0.0003092
Mean motion
14.98331304 rev/d
Perigee alt
569.9 km
Apogee alt
574.2 km
Semi-major
6,950.2 km
B*
2.2046e-5
RAAN
53.1275°
Arg perigee
270.2675°
Mean anomaly
89.8130°
Rev number
19,798

§ Raw data

STARLINK-55061 55651U 23021Z   26263.59130063  .00000170  00000+0  22046-4 0  99912 55651  70.0000  53.1275 0003092 270.2675  89.8130 14.98331304197986

JSON: /api/v1/satellites/55651 · /tle

For live sub-satellite position, see the globe view (requires WebGL).

§ Visibility from observer

Set your observer location to see the next 7 days of passes ≥ 10°. The values pass through the URL so the page stays shareable.

No JS? Fill the form by hand. The geolocation button needs JavaScript.